Weather History for KSGF - May, 2014

Change the Weather History Date:

Tuesday, May 13, 2014

  Actual Average Record
Temperature  
Mean Temperature 51 °F 64 °F  
Max Temperature 55 °F 74 °F 88 °F (1956)
Min Temperature 47 °F 54 °F 36 °F (1971)
Degree Days  
Heating Degree Days 14 3  
Month to date heating degree days 49 58  
Since 1 July heating degree days 4957 4532  
Cooling Degree Days 0 2  
Month to date cooling degree days 74 21  
Year to date cooling degree days 88 46  
Growing Degree Days 2 (Base 50)    
Moisture  
Dew Point 47 °F    
Average Humidity 85    
Maximum Humidity 93    
Minimum Humidity 77    
Precipitation  
Precipitation 0.01 in 0.18 in 2.65 in (1991)
Month to date precipitation 2.11 2.32  
Year to date precipitation 8.31 15.25  
Snow  
Snow 0.00 in - - ()
Month to date snowfall 0.0  
Since 1 July snowfall 32.2  
Snow Depth 0.00 in    
Sea Level Pressure  
Sea Level Pressure 30.14 in    
Wind  
Wind Speed 10 mph (NW)    
Max Wind Speed 18 mph    
Max Gust Speed 24 mph    
Visibility 9 miles    
Events Rain    
T = Trace of Precipitation, MM = Missing Value Source: NWS Daily Summary

Daily Weather History Graph

Daily Weather History Graph

Search for Another Location

Airport or City:

Trip Planner

Search our weather history database for the weather conditions in past years. The results will help you decide how hot, cold, wet, or windy it might be!

Date:

Astronomy

May. 13, 2014 Rise Set
Actual Time 6:06 AM CDT 8:13 PM CDT
Civil Twilight 5:37 AM CDT 8:42 PM CDT
Nautical Twilight 5:02 AM CDT 9:18 PM CDT
Astronomical Twilight 4:24 AM CDT 9:56 PM CDT
Moon 7:17 PM CDT (5/13) 5:21 AM CDT (5/13)
Length of Visible Light 15h 04m
Length of Day
14h 07m
Waxing Gibbous, 99% of the Moon is Illuminated
May 13
Waxing Gibbous
May 14
Full
May 21
Last Quarter
May 28
New
Jun 5
First Quarter

Hourly Weather History & Observations

Time (CDT) Temp. Dew Point Humidity Pressure Visibility Wind Dir Wind Speed Gust Speed Precip Events Conditions
12:52 AM 55.0 °F 53.1 °F 93% 30.00 in 7.0 mi WNW 8.1 mph - 0.00 in   Overcast
1:52 AM 55.0 °F 52.0 °F 89% 29.99 in 7.0 mi NW 10.4 mph - 0.00 in Rain Light Rain
2:52 AM 53.1 °F 51.1 °F 93% 29.99 in 5.0 mi NW 13.8 mph - 0.01 in Rain Light Rain
3:52 AM 51.8 °F 50.0 °F 94% 30.02 in 4.0 mi NW 15.0 mph - N/A   Overcast
4:52 AM 50.0 °F 48.0 °F 93% 30.01 in 10.0 mi NW 15.0 mph 18.4 mph N/A   Overcast
5:50 AM 50.0 °F 46.4 °F 87% 30.06 in 10.0 mi NW 11.5 mph - N/A   Overcast
5:52 AM 50.0 °F 46.9 °F 89% 30.05 in 10.0 mi NW 10.4 mph - N/A   Overcast
6:15 AM 48.9 °F 46.9 °F 93% 30.07 in 8.0 mi NW 12.7 mph - N/A   Overcast
6:45 AM 48.9 °F 46.9 °F 93% 30.09 in 10.0 mi NNW 9.2 mph - N/A   Overcast
6:52 AM 48.2 °F 46.4 °F 93% 30.09 in 10.0 mi NNW 9.2 mph - N/A   Overcast
7:52 AM 48.2 °F 46.4 °F 93% 30.11 in 7.0 mi NW 10.4 mph - N/A Rain Light Rain
8:52 AM 48.9 °F 46.0 °F 90% 30.13 in 10.0 mi NNW 9.2 mph - 0.00 in   Overcast
10:52 AM 50.0 °F 46.4 °F 87% 30.16 in 10.0 mi NW 9.2 mph - N/A   Overcast
11:52 AM 52.0 °F 46.9 °F 83% 30.17 in 10.0 mi NNW 6.9 mph - N/A   Overcast
12:09 PM 51.1 °F 46.9 °F 86% 30.17 in 10.0 mi WNW 8.1 mph - N/A   Overcast
12:24 PM 51.1 °F 46.9 °F 86% 30.17 in 10.0 mi NW 11.5 mph - N/A   Overcast
12:49 PM 51.8 °F 46.4 °F 82% 30.17 in 10.0 mi WNW 6.9 mph - N/A   Overcast
12:52 PM 52.0 °F 46.9 °F 83% 30.17 in 10.0 mi WNW 10.4 mph - N/A   Overcast
1:01 PM 53.1 °F 48.0 °F 83% 30.17 in 10.0 mi NNW 10.4 mph - N/A   Overcast
1:52 PM 53.1 °F 46.9 °F 80% 30.17 in 10.0 mi NW 9.2 mph - 0.00 in   Overcast
1:59 PM 53.1 °F 46.9 °F 80% 30.17 in 10.0 mi NW 9.2 mph - N/A   Overcast
2:36 PM 53.1 °F 46.9 °F 80% 30.18 in 10.0 mi NW 15.0 mph - N/A   Overcast
2:52 PM 52.0 °F 46.9 °F 83% 30.18 in 10.0 mi NW 13.8 mph - N/A   Overcast
3:15 PM 54.0 °F 46.9 °F 77% 30.18 in 10.0 mi NW 9.2 mph - N/A   Overcast
3:52 PM 54.0 °F 46.9 °F 77% 30.17 in 10.0 mi NW 12.7 mph - N/A   Overcast
4:52 PM 53.1 °F 46.9 °F 80% 30.17 in 10.0 mi NNW 13.8 mph - N/A   Overcast
5:52 PM 53.1 °F 46.0 °F 77% 30.19 in 10.0 mi North 11.5 mph - N/A   Overcast
6:52 PM 53.1 °F 46.9 °F 80% 30.19 in 10.0 mi North 8.1 mph - N/A   Overcast
7:23 PM 53.1 °F 46.0 °F 77% 30.19 in 10.0 mi North 8.1 mph - N/A   Overcast
7:52 PM 53.1 °F 46.0 °F 77% 30.20 in 10.0 mi North 6.9 mph - N/A   Overcast
8:05 PM 53.1 °F 46.0 °F 77% 30.19 in 9.0 mi North 5.8 mph - N/A   Overcast
8:29 PM 53.1 °F 46.0 °F 77% 30.20 in 10.0 mi NNW 5.8 mph - N/A   Overcast
8:52 PM 52.0 °F 46.9 °F 83% 30.21 in 10.0 mi NW 4.6 mph - N/A   Overcast
9:52 PM 52.0 °F 48.0 °F 86% 30.23 in 10.0 mi NW 3.5 mph - N/A   Overcast
10:52 PM 51.1 °F 46.9 °F 86% 30.23 in 10.0 mi NNW 6.9 mph - N/A   Scattered Clouds
11:52 PM 48.0 °F 45.0 °F 89% 30.23 in 9.0 mi NW 5.8 mph - N/A   Clear